Date String (YYYY-MM-DD hh:mm:ss) UTC,Instrument flags,Ambient pressure (hPa),Sample flow (lpm),Bypass flow (lpm),Sample temperature (°C),Ambient temperature (°C),ASC tube jacket temperature (°C),LED temperature (°C),Box temperature (°C),Sample RH (%),Span deviation,Mass concentration (μg/m³),Mass concentration (μg/m³),Mass concentration (μg/m³)
DateTimeUTC,F1_M11,P_M11,Q1_M11,Q2_M11,T1_M11,T2_M11,T3_M11,T4_M11,T5_M11,U1_M11,ZSPAN_M11,X2_M11,X0_M11,X1_M11
2023-04-07 02:00:00,,0834.5,5.00,0.00,23.5,21.7,00.0,32.0,24.9,07.4,0000.0,0004.14,0011.45,0003.28
2023-04-07 02:01:00,,0834.5,5.00,0.00,23.5,21.6,00.0,32.0,24.9,07.3,0000.0,0004.09,0011.05,0003.27
2023-04-07 02:02:00,,0834.5,5.00,0.00,23.4,21.6,00.0,31.9,24.9,07.2,0000.0,0004.05,0011.00,0003.25
2023-04-07 02:03:00,,0834.5,5.01,0.00,23.4,21.5,00.0,31.9,24.8,07.2,0000.0,0004.03,0010.37,0003.24
2023-04-07 02:04:00,,0834.5,5.01,0.00,23.4,21.5,00.0,31.9,24.8,07.2,0000.0,0004.02,0010.30,0003.23
2023-04-07 02:05:00,,0834.5,5.00,0.00,23.3,21.5,00.0,31.9,24.8,07.2,0000.0,0004.01,0009.92,0003.23
2023-04-07 02:06:00,,0834.5,4.99,0.00,23.3,21.4,00.0,31.9,24.8,07.2,0000.0,0003.98,0009.57,0003.23
2023-04-07 02:07:00,,0834.5,5.00,0.00,23.3,21.4,00.0,31.8,24.8,07.3,0000.0,0003.95,0008.88,0003.24
2023-04-07 02:08:00,,0834.5,4.99,0.00,23.3,21.3,00.0,31.8,24.8,07.3,0000.0,0003.93,0008.24,0003.23
2023-04-07 02:09:00,,0834.5,5.00,0.00,23.3,21.3,00.0,31.8,24.8,07.3,0000.0,0003.95,0008.28,0003.23
2023-04-07 02:10:00,,0834.5,5.01,0.00,23.3,21.3,00.0,31.8,24.8,07.4,0000.0,0003.93,0008.24,0003.23
2023-04-07 02:11:00,,0834.6,5.01,0.00,23.2,21.3,00.0,31.8,24.6,07.8,0000.0,0003.93,0008.57,0003.23
2023-04-07 02:12:00,,0834.5,5.00,0.00,23.2,21.2,00.0,31.7,24.5,08.3,0000.0,0003.96,0008.28,0003.22
2023-04-07 02:13:00,,0834.8,5.00,0.00,23.1,21.1,00.0,31.7,24.5,08.1,0000.0,0003.94,0008.20,0003.21
2023-04-07 02:14:00,,0835.1,5.01,0.00,23.1,21.1,00.0,31.7,24.5,08.0,0000.0,0003.94,0008.21,0003.20
2023-04-07 02:15:00,,0835.1,5.00,0.00,23.1,21.1,00.0,31.7,24.5,08.0,0000.0,0003.94,0008.12,0003.19
2023-04-07 02:16:00,,0835.1,4.98,0.00,23.0,21.1,00.0,31.6,24.4,08.0,0000.0,0003.93,0008.33,0003.17
2023-04-07 02:17:00,,0834.9,4.99,0.00,23.0,21.1,00.0,31.6,24.5,07.9,0000.0,0003.93,0008.70,0003.16
2023-04-07 02:18:00,,0834.7,5.02,0.00,23.0,21.1,00.0,31.6,24.5,07.9,0000.0,0003.97,0008.75,0003.16
2023-04-07 02:19:00,,0834.7,5.00,0.00,23.0,21.1,00.0,31.6,24.5,07.8,0000.0,0003.99,0008.82,0003.16
2023-04-07 02:20:00,,0834.6,4.99,0.00,23.0,21.1,00.0,31.5,24.5,07.7,0000.0,0004.02,0008.94,0003.17
2023-04-07 02:21:00,,0834.6,5.00,0.00,23.0,21.1,00.0,31.5,24.5,07.7,0000.0,0004.05,0008.96,0003.17
2023-04-07 02:22:00,,0834.6,5.01,0.00,23.0,21.1,00.0,31.5,24.5,07.7,0000.0,0004.04,0008.65,0003.17
2023-04-07 02:23:00,,0834.6,5.00,0.00,23.0,21.1,00.0,31.5,24.5,07.6,0000.0,0004.02,0008.47,0003.19
2023-04-07 02:24:00,,0834.6,4.99,0.00,23.0,21.1,00.0,31.5,24.5,07.7,0000.0,0004.07,0008.78,0003.20
2023-04-07 02:25:00,,0834.6,4.99,0.00,22.9,21.1,00.0,31.4,24.5,07.8,0000.0,0004.07,0008.98,0003.20
2023-04-07 02:26:00,,0834.6,5.02,0.00,22.9,21.1,00.0,31.4,24.4,07.9,0000.0,0004.08,0009.24,0003.21
2023-04-07 02:27:00,,0834.6,5.00,0.00,22.9,21.1,00.0,31.4,24.4,08.1,0000.0,0004.07,0009.18,0003.21
2023-04-07 02:28:00,,0834.6,4.98,0.00,22.9,21.1,00.0,31.4,24.4,08.0,0000.0,0004.08,0008.96,0003.21
2023-04-07 02:29:00,,0835.0,5.01,0.00,22.9,21.0,00.0,31.4,24.4,08.0,0000.0,0004.09,0009.14,0003.20
2023-04-07 02:30:00,,0835.2,5.00,0.00,22.9,21.0,00.0,31.4,24.4,08.2,0000.0,0004.09,0009.25,0003.20
2023-04-07 02:31:00,,0835.1,5.00,0.00,22.8,21.0,00.0,31.4,24.3,08.4,0000.0,0004.06,0009.46,0003.18
2023-04-07 02:32:00,,0835.3,5.00,0.00,22.8,21.0,00.0,31.3,24.3,08.1,0000.0,0004.06,0010.07,0003.19
2023-04-07 02:33:00,,0835.2,4.99,0.00,22.8,21.0,00.0,31.3,24.3,08.1,0000.0,0004.10,0010.31,0003.18
2023-04-07 02:34:00,,0834.8,5.00,0.00,22.8,20.9,00.0,31.3,24.2,08.1,0000.0,0004.14,0011.02,0003.17
2023-04-07 02:35:00,,0834.8,4.99,0.00,22.7,20.9,00.0,31.3,24.2,08.2,0000.0,0004.09,0010.96,0003.15
2023-04-07 02:36:00,,0835.0,4.99,0.00,22.7,20.8,00.0,31.2,24.1,08.2,0000.0,0004.05,0010.70,0003.14
2023-04-07 02:37:00,,0834.8,5.01,0.00,22.7,20.7,00.0,31.2,24.1,08.1,0000.0,0003.97,0010.82,0003.12
2023-04-07 02:38:00,,0834.6,5.01,0.00,22.6,20.7,00.0,31.2,24.1,08.0,0000.0,0003.94,0010.99,0003.11
2023-04-07 02:39:00,,0834.7,4.99,0.00,22.6,20.7,00.0,31.2,24.0,08.2,0000.0,0003.92,0010.90,0003.10
2023-04-07 02:40:00,,0834.7,5.00,0.00,22.6,20.7,00.0,31.2,24.0,08.2,0000.0,0003.88,0011.37,0003.08
2023-04-07 02:41:00,,0834.7,4.99,0.00,22.5,20.6,00.0,31.1,24.0,08.1,0000.0,0003.83,0011.42,0003.05
2023-04-07 02:42:00,,0834.7,5.00,0.00,22.5,20.6,00.0,31.1,23.9,08.0,0000.0,0003.79,0011.13,0003.05
2023-04-07 02:43:00,,0834.7,4.99,0.00,22.5,20.6,00.0,31.1,23.9,08.1,0000.0,0003.76,0010.61,0003.05
2023-04-07 02:44:00,,0834.7,5.00,0.00,22.5,20.6,00.0,31.1,23.9,08.2,0000.0,0003.71,0010.88,0003.02
2023-04-07 02:45:00,,0834.8,5.00,0.00,22.4,20.5,00.0,31.0,23.8,08.4,0000.0,0003.66,0010.55,0003.00
2023-04-07 02:46:00,,0834.7,5.01,0.00,22.4,20.5,00.0,31.0,23.8,08.6,0000.0,0003.64,0010.23,0002.98
2023-04-07 02:47:00,,0834.8,5.01,0.00,22.4,20.5,00.0,31.0,23.8,08.7,0000.0,0003.67,0010.85,0002.98
2023-04-07 02:48:00,,0834.9,5.00,0.00,22.4,20.4,00.0,31.0,23.8,08.8,0000.0,0003.71,0010.72,0003.01
2023-04-07 02:49:00,,0834.9,5.00,0.00,22.4,20.4,00.0,30.9,23.8,08.7,0000.0,0003.78,0010.53,0003.04
2023-04-07 02:50:00,,0835.3,4.99,0.00,22.3,20.4,00.0,30.9,23.8,08.6,0000.0,0003.81,0010.66,0003.06
2023-04-07 02:51:00,,0835.4,5.00,0.00,22.3,20.4,00.0,30.9,23.8,08.6,0000.0,0003.85,0010.39,0003.08
2023-04-07 02:52:00,,0835.3,5.00,0.00,22.3,20.4,00.0,30.9,23.7,08.6,0000.0,0003.86,0010.10,0003.10
2023-04-07 02:53:00,,0834.9,5.00,0.00,22.3,20.4,00.0,30.8,23.7,08.7,0000.0,0003.87,0010.04,0003.12
2023-04-07 02:54:00,,0834.9,4.99,0.00,22.2,20.3,00.0,30.8,23.6,08.5,0000.0,0003.86,0009.97,0003.12
2023-04-07 02:55:00,,0835.0,5.00,0.00,22.2,20.3,00.0,30.8,23.6,08.2,0000.0,0003.88,0009.53,0003.13
2023-04-07 02:56:00,,0834.9,5.01,0.00,22.2,20.3,00.0,30.8,23.7,08.2,0000.0,0003.93,0009.33,0003.16
2023-04-07 02:57:00,,0835.0,5.00,0.00,22.2,20.3,00.0,30.8,23.6,08.6,0000.0,0003.98,0009.14,0003.18
2023-04-07 02:58:00,,0835.0,5.00,0.00,22.2,20.3,00.0,30.7,23.6,08.2,0000.0,0004.00,0008.60,0003.20
2023-04-07 02:59:00,,0835.1,4.99,0.00,22.1,20.2,00.0,30.7,23.6,08.3,0000.0,0004.04,0008.56,0003.20
